Flag for Switzerland Weather past 2 weeks in Illnau-Effretikon, Zurich, Switzerland

Now
61 °F

Refreshingly cool.


Feels Like: 61 °F
Forecast: 50 / 69 °F
Wind: 7 mph from West

Location: Zurich Town / Ville.

Current Time: Apr 25, 2015 at 1:28:56 PM

Latest Report: Apr 25, 2015 at 12:00 PM


Visibility: N/A

Pressure: 29.89 "Hg

Humidity: 53%

Dew point: 44 °F

Location of Illnau-EffretikonLocation

Historic Weather in Illnau-Effretikon — Graph

°F

Illnau-Effretikon temperature yesterday

Maximum temperature yesterday: 69 °F (at 6:00 PM)
Minimum temperature yesterday: 40 °F (at 7:00 AM)
Average temperature yesterday: 55 °F

Past Weeks' High & Low Weather Summary

 TemperatureHumidityPressure
High72 °F (Apr 15, 5:00 PM)96% (Apr 17, 10:00 PM)30.47 "Hg (Apr 17, 10:00 PM)
Low36 °F (Apr 19, 7:00 AM)19% (Apr 22, 7:00 PM)29.85 "Hg (Apr 24, 7:00 PM)
Average55 °F53%30.17 "Hg
* Reported Apr 10 12:00 Noon — Apr 25 12:00 Noon, Illnau-Effretikon, Weather by CustomWeather, © 2015

Note: Actual official high and low records may vary slightly from our data, if they occured in-between our weather recording intervals... More about our weather records

Advertising

Illnau-Effretikon weather history for previous 24 hours

 ConditionsComfort  
Time TempWeatherWind HumidityBarometerVisibility
12:00 PM
Sat, Apr 25
61 °FRefreshingly cool.7 mph53%29.89 "HgN/A
11:00 AM60 °FRefreshingly cool.2 mph50%29.90 "HgN/A
10:00 AM57 °FRefreshingly cool.3 mph58%29.91 "HgN/A
9:00 AM55 °FCool.1 mph68%29.91 "HgN/A
8:00 AM54 °FCool.2 mph63%29.91 "HgN/A
7:00 AM52 °FCool.1 mph68%29.92 "HgN/A
6:00 AM50 °FCool.1 mph73%29.89 "HgN/A
5:00 AM50 °FCool.1 mph74%29.89 "HgN/A
4:00 AM50 °FCool.1 mph73%29.90 "HgN/A
3:00 AM51 °FCool.No wind72%29.91 "HgN/A
2:00 AM52 °FCool.1 mph67%29.92 "HgN/A
1:00 AM52 °FCool.No wind62%29.93 "HgN/A
12:00 AM53 °FCool.No wind57%29.92 "HgN/A
11:00 PM
Fri, Apr 24
54 °FCool.2 mph56%29.92 "HgN/A
10:00 PM56 °FRefreshingly cool.2 mph50%29.91 "HgN/A
9:00 PM59 °FRefreshingly cool.5 mph47%29.90 "HgN/A
8:00 PM64 °FMild.3 mph35%29.87 "HgN/A
7:00 PM67 °FMild.3 mph29%29.85 "HgN/A
6:00 PM69 °FMild.5 mph24%29.86 "HgN/A
4:00 PM68 °FMild.5 mph30%29.89 "HgN/A
3:00 PM67 °FMild.7 mph31%29.91 "HgN/A
2:00 PM66 °FSunny.5 mph36%29.93 "HgN/A
1:00 PM64 °FMild.5 mph39%29.95 "HgN/A
Weather by CustomWeather, © 2015

See weather overviewHow to use our weather pages